Home > Weather > French Lick > Past weeks

Flag for USA Weather for the Past 2 Weeks in French Lick, Indiana, USA

Now
75 °F

Sunny.


Feels Like: 78 °F
Forecast: 60 / 75 °F
Wind: 21 mph from West

Location: Huntingburg Airport

Current Time: Apr 28, 2016 at 4:47:49 PM

Latest Report: Apr 28, 2016 at 4:35 PM


Visibility: 10 mi

Pressure: 29.87 "Hg

Humidity: 44%

Dew Point: 52 °F

Location of French LickLocation

Historic Weather in French Lick — Graph

°F

French Lick Temperature Yesterday

Maximum temperature yesterday: 70 °F (at 3:15 PM)
Minimum temperature yesterday: 57 °F (at 4:35 AM)
Average temperature yesterday: 64 °F

High & Low Weather Summary for the Past Weeks

 TemperatureHumidityPressure
High82 °F (Apr 18, 3:55 PM)94% (Apr 21, 1:15 PM)30.38 "Hg (Apr 21, 1:15 PM)
Low43 °F (Apr 14, 5:55 AM)23% (Apr 17, 4:35 PM)29.71 "Hg (Apr 26, 6:55 PM)
Average64 °F62%30.05 "Hg
* Reported Apr 13 3:15 PM — Apr 28 3:35 PM, French Lick, Weather by CustomWeather, © 2016

Note: Actual official high and low records may vary slightly from our data, if they occured in-between our weather recording intervals... More about our weather records

Advertising

French Lick Weather History for the Previous 24 Hours

Scroll right to see more
 ConditionsComfort  
Time TempWeatherWind HumidityBarometerVisibility
3:35 PM
Thu, Apr 28
73 °FSunny.14 mph50%29.87 "Hg10 mi
3:15 PM73 °FSunny.15 mph47%29.87 "Hg10 mi
2:55 PM73 °FSunny.15 mph50%29.86 "Hg10 mi
2:35 PM75 °FSunny.20 mph44%29.86 "Hg10 mi
2:15 PM73 °FPassing clouds.17 mph53%29.85 "Hg10 mi
1:55 PM73 °FScattered clouds.13 mph57%29.86 "Hg10 mi
1:35 PM73 °FScattered clouds.16 mph57%29.85 "Hg10 mi
1:15 PM73 °FPassing clouds.14 mph61%29.85 "Hg10 mi
12:55 PM72 °FBroken clouds.9 mph73%29.85 "Hg10 mi
12:35 PM72 °FScattered clouds.14 mph73%29.85 "Hg10 mi
12:15 PM72 °FPassing clouds.12 mph73%29.84 "Hg10 mi
11:55 AM70 °FBroken clouds.10 mph78%29.85 "Hg10 mi
11:35 AM70 °FPartly sunny.12 mph78%29.84 "Hg10 mi
11:15 AM70 °FPartly sunny.10 mph78%29.84 "Hg10 mi
10:55 AM68 °FOvercast.10 mph78%29.84 "Hg10 mi
10:35 AM68 °FOvercast.13 mph83%29.83 "Hg10 mi
9:55 AM66 °FPartly sunny.6 mph88%29.82 "Hg10 mi
9:35 AM66 °FPartly sunny.9 mph83%29.81 "Hg10 mi
9:15 AM66 °FBroken clouds.8 mph88%29.81 "Hg10 mi
8:35 AM64 °FLow clouds.8 mph88%29.80 "Hg7 mi
8:15 AM63 °FPartly sunny.6 mph94%29.80 "Hg7 mi
7:35 AM63 °FPassing clouds.6 mph88%29.79 "Hg7 mi
7:15 AM63 °FOvercast.7 mph83%29.79 "Hg8 mi
6:55 AM63 °FMostly cloudy.6 mph83%29.78 "Hg9 mi
6:35 AM63 °FMostly cloudy.5 mph83%29.77 "Hg10 mi
6:15 AM63 °FPartly cloudy.3 mph88%29.77 "Hg10 mi
5:55 AM63 °FMostly cloudy.6 mph83%29.76 "Hg10 mi
5:35 AM63 °FMostly cloudy.7 mph88%29.76 "Hg10 mi
5:15 AM63 °FOvercast.7 mph83%29.75 "Hg10 mi
4:35 AM63 °FOvercast.5 mph83%29.75 "Hg10 mi
3:55 AM63 °FOvercast.6 mph83%29.74 "Hg10 mi
3:35 AM61 °FOvercast.5 mph88%29.75 "Hg10 mi
3:15 AM61 °FOvercast.6 mph88%29.74 "Hg10 mi
2:55 AM61 °FPassing clouds.8 mph88%29.74 "Hg10 mi
1:55 AM61 °FPassing clouds.5 mph88%29.76 "Hg10 mi
1:35 AM61 °FPartly cloudy.6 mph88%29.76 "Hg10 mi
12:55 AM63 °FOvercast.9 mph83%29.75 "Hg10 mi
11:55 PM
Wed, Apr 27
63 °FPassing clouds.5 mph83%29.76 "Hg10 mi
11:35 PM63 °FMostly cloudy.5 mph88%29.76 "Hg10 mi
10:55 PM63 °FPartly cloudy.8 mph83%29.76 "Hg10 mi
10:15 PM63 °FOvercast.8 mph88%29.77 "Hg10 mi
9:55 PM63 °FOvercast.7 mph88%29.76 "Hg10 mi
9:15 PM63 °FThunderstorms. Broken clouds.6 mph88%29.78 "Hg5 mi
8:55 PM63 °FThundershowers. Mostly cloudy.9 mph88%29.79 "Hg5 mi
8:35 PM64 °FThunderstorms. Cloudy.9 mph83%29.78 "Hg9 mi
7:55 PM66 °FThunderstorms. Broken clouds.10 mph88%29.72 "Hg9 mi
7:15 PM68 °FThundershowers. Overcast.No wind83%29.72 "Hg9 mi
6:35 PM70 °FScattered clouds.5 mph83%29.72 "Hg10 mi
6:15 PM70 °FSunny.6 mph83%29.71 "Hg10 mi
5:55 PM70 °FPassing clouds.8 mph83%29.72 "Hg10 mi
5:15 PM70 °FPartly sunny.12 mph83%29.74 "Hg10 mi
4:55 PM70 °FScattered clouds.12 mph83%29.74 "Hg10 mi
4:35 PM70 °FPassing clouds.10 mph83%29.75 "Hg10 mi
4:15 PM70 °FBroken clouds.12 mph83%29.75 "Hg10 mi
Weather by CustomWeather, © 2016

See weather overviewHow to use our weather pages